Bandon Weather Center

Moon Phase Calendar



Online Cameras

 


      

Current Conditions in Bandon
5/28/2022 4:25:37 AM

48°F
Feels Like 48
Clouds
Humidity
97%
Pressure
29.83"
Wind
1 mph (SE)
Dew Point
47°F
UV Index
0/10 (Low)
Visibility
6 mi

Hourly Forecast

Date & Time Sat, May 28
4:00 AM
Sat, May 28
5:00 AM
Sat, May 28
6:00 AM
Sat, May 28
7:00 AM
Sat, May 28
8:00 AM
Sat, May 28
9:00 AM
Sat, May 28
10:00 AM
Sat, May 28
11:00 AM
Sat, May 28
12:00 PM
Sat, May 28
1:00 PM
Sat, May 28
2:00 PM
Sat, May 28
3:00 PM
Sat, May 28
4:00 PM
Sat, May 28
5:00 PM
Sat, May 28
6:00 PM
Sat, May 28
7:00 PM
Sat, May 28
8:00 PM
Sat, May 28
9:00 PM
Sat, May 28
10:00 PM
Sat, May 28
11:00 PM
Sun, May 29
12:00 AM
Sun, May 29
1:00 AM
Sun, May 29
2:00 AM
Sun, May 29
3:00 AM
Sun, May 29
4:00 AM
Sun, May 29
5:00 AM
Sun, May 29
6:00 AM
Sun, May 29
7:00 AM
Sun, May 29
8:00 AM
Sun, May 29
9:00 AM
Sun, May 29
10:00 AM
Sun, May 29
11:00 AM
Sun, May 29
12:00 PM
Sun, May 29
1:00 PM
Sun, May 29
2:00 PM
Sun, May 29
3:00 PM
Sun, May 29
4:00 PM
Sun, May 29
5:00 PM
Sun, May 29
6:00 PM
Sun, May 29
7:00 PM
Sun, May 29
8:00 PM
Sun, May 29
9:00 PM
Sun, May 29
10:00 PM
Sun, May 29
11:00 PM
Mon, May 30
12:00 AM
Mon, May 30
1:00 AM
Mon, May 30
2:00 AM
Mon, May 30
3:00 AM
Condition
Clouds

Clouds

Clouds

Rain

Rain

Rain

Rain

Rain

Rain

Rain

Rain

Rain

Rain

Rain

Rain

Rain

Rain

Rain

Rain

Rain

Rain

Rain

Rain

Rain

Clouds

Rain

Rain

Rain

Rain

Rain

Rain

Clouds

Clouds

Clouds

Clouds

Clouds

Rain

Rain

Clouds

Clouds

Rain

Rain

Rain

Rain

Rain

Rain

Rain

Rain
Temperature 48°F48°F49°F51°F52°F54°F55°F55°F55°F54°F54°F54°F53°F52°F52°F52°F52°F53°F52°F52°F52°F52°F52°F52°F52°F51°F51°F52°F52°F52°F52°F52°F53°F54°F54°F54°F53°F54°F53°F53°F52°F51°F51°F51°F51°F51°F51°F51°F
Feels Like 44°F45°F45°F50°F51°F53°F54°F54°F54°F54°F54°F53°F52°F51°F51°F51°F52°F52°F52°F51°F51°F51°F51°F51°F51°F50°F50°F50°F50°F51°F51°F51°F52°F52°F52°F52°F52°F52°F52°F51°F50°F50°F50°F50°F50°F50°F50°F50°F
Cloudiness 100%100%100%98%97%97%98%98%100%100%100%100%100%100%100%100%100%100%100%100%100%100%100%99%86%74%90%95%88%91%89%86%51%60%67%66%59%53%27%21%27%35%47%56%100%100%100%98%
Visibility 6 mi6 mi6 mi6 mi6 mi6 mi6 mi6 mi6 mi6 mi6 mi3 mi6 mi6 mi6 mi6 mi6 mi6 mi6 mi6 mi6 mi6 mi6 mi6 mi6 mi6 mi6 mi6 mi6 mi6 mi6 mi6 mi6 mi6 mi6 mi6 mi6 mi6 mi6 mi6 mi6 mi6 mi6 mi6 mi6 mi6 mi6 mi6 mi
Precipitation 25%21%50%75%96%93%93%100%100%100%100%100%100%100%94%97%100%100%100%100%87%87%82%75%76%87%100%94%90%77%73%73%39%35%35%35%35%35%35%39%40%43%47%63%87%87%82%76%
Humidity 97%95%93%92%89%89%86%90%90%94%96%96%90%88%90%91%92%92%91%91%91%89%86%84%83%84%86%84%85%82%79%73%68%65%67%69%71%70%71%74%78%81%82%83%84%87%87%86%
Dew Point 47°F47°F48°F48°F49°F50°F50°F51°F51°F52°F53°F52°F50°F49°F49°F49°F50°F50°F49°F49°F49°F48°F48°F47°F46°F46°F46°F47°F47°F46°F45°F44°F43°F42°F43°F43°F44°F44°F44°F44°F45°F45°F45°F45°F46°F46°F46°F46°F
Pressure 29.83"29.83"29.83"29.83"29.8"29.74"29.71"29.71"29.68"29.68"29.68"29.71"29.74"29.8"29.83"29.83"29.85"29.88"29.91"29.94"29.97"30"30"30.03"30.03"30.06"30.06"30.09"30.09"30.09"30.12"30.12"30.12"30.15"30.15"30.15"30.12"30.12"30.15"30.15"30.15"30.15"30.15"30.15"30.15"30.15"30.15"30.15"
Wind Speed 8.5 mph8.7 mph10.5 mph11.7 mph14.1 mph11.8 mph14.4 mph23.6 mph30 mph30.6 mph32.2 mph28.5 mph23.5 mph21 mph22.3 mph24.9 mph26 mph23.3 mph22.1 mph20.7 mph19.7 mph18.7 mph17.4 mph15.8 mph13.1 mph11 mph13.5 mph14.4 mph14 mph14.2 mph14.2 mph14 mph12.8 mph12.1 mph11.6 mph13.3 mph12.7 mph13.1 mph12 mph11.9 mph10.4 mph9.1 mph8.6 mph8.2 mph7.3 mph7.7 mph8.8 mph9.7 mph
Wind
Direction
165°
SSE
158°
SSE
162°
SSE
173°
S
162°
SSE
158°
SSE
172°
S
180°
S
183°
S
189°
S
194°
SSW
203°
SSW
273°
W
259°
W
248°
WSW
257°
WSW
275°
W
284°
WNW
291°
WNW
292°
WNW
295°
WNW
300°
WNW
303°
WNW
306°
NW
307°
NW
306°
NW
313°
NW
318°
NW
322°
NW
321°
NW
315°
NW
312°
NW
310°
NW
307°
NW
305°
NW
309°
NW
315°
NW
319°
NW
322°
NW
322°
NW
325°
NW
324°
NW
325°
NW
327°
NNW
330°
NNW
341°
NNW
345°
NNW
349°
N

Daily Forecast

Date High Low Precip. Humidity
Today
May 28

Rain
55 °F
48 °F
100%
94%
Sunday
May 29

Rain
54 °F
51 °F
100%
65%
Monday
May 30

Rain
55 °F
51 °F
82%
75%
Tuesday
May 31

Clouds
59 °F
49 °F
0%
76%
Wednesday
Jun 1

Clouds
59 °F
52 °F
0%
77%
Thursday
Jun 2

Clear
60 °F
51 °F
0%
69%
Friday
Jun 3

Rain
58 °F
54 °F
38%
77%
Saturday
Jun 4

Rain
57 °F
53 °F
77%
70%
Sunday
Jun 5

Rain
56 °F
54 °F
94%
96%
Monday
Jun 6

Rain
58 °F
52 °F
20%
74%
Tuesday
Jun 7

Clouds
59 °F
52 °F
0%
70%
Wednesday
Jun 8

Rain
58 °F
54 °F
84%
97%
Thursday
Jun 9

Clouds
59 °F
53 °F
0%
83%
Friday
Jun 10

Rain
57 °F
50 °F
20%
70%
Saturday
Jun 11

Rain
54 °F
50 °F
100%
75%
Sunday
Jun 12

Rain
55 °F
50 °F
100%
89%

Temperature 8-14 Day Outlook



Precipitation 8-14 Day Outlook




Quick Links
Bandon News
Bandon Photos
Bandon Videos




About Us
Contact Us
Site Map
Search Site
Advertise With Us
   
Bandon.USCoast.info
THE BANDON WEBSITE

Copyright 2022, Coastal Town
Privacy    |    Legal